This is the latest recevied weather packets stored in our database for station/object DC7RY. If no packets are shown the sender has not sent any weather packets the latest 10 day(s).
| Time | Temp. | Humidity | Pressure | Rain* | Wind** | Luminosity | Snow |
|---|---|---|---|---|---|---|---|
| 1777302022 | 20° C | 31% | 1013.5 hPa | 0 mm | - | 278 W/m² | - |
| 1777301430 | 19.44° C | 33% | 1013.6 hPa | 0 mm | - | 371 W/m² | - |
| 1777300822 | 20° C | 33% | 1013.6 hPa | 0 mm | - | 306 W/m² | - |
| 1777300230 | 20° C | 33% | 1013.9 hPa | 0 mm | - | 281 W/m² | - |
| 1777299623 | 20° C | 33% | 1014 hPa | 0 mm | - | 331 W/m² | - |
| 1777299030 | 20° C | 32% | 1014.2 hPa | 0 mm | - | 289 W/m² | - |
| 1777298422 | 20° C | 32% | 1014.4 hPa | 0 mm | - | 310 W/m² | - |
| 1777297829 | 18.89° C | 30% | 1014.2 hPa | 0 mm | - | 306 W/m² | - |
| 1777297221 | 18.89° C | 32% | 1014.3 hPa | 0 mm | - | 309 W/m² | - |
| 1777296629 | 18.33° C | 32% | 1014.4 hPa | 0 mm | - | 275 W/m² | - |
| 1777296021 | 18.33° C | 34% | 1014.6 hPa | 0 mm | - | 235 W/m² | - |
| 1777295429 | 18.33° C | 33% | 1014.6 hPa | 0 mm | - | 244 W/m² | - |
| 1777294821 | 17.78° C | 32% | 1014.6 hPa | 0 mm | - | 267 W/m² | - |
| 1777294229 | 17.78° C | 34% | 1014.8 hPa | 0 mm | - | 279 W/m² | - |
| 1777293621 | 17.78° C | 34% | 1014.8 hPa | 0 mm | - | 231 W/m² | - |
| 1777293029 | 17.22° C | 33% | 1014.7 hPa | 0 mm | - | 209 W/m² | - |
| 1777292421 | 17.22° C | 35% | 1014.9 hPa | 0 mm | - | 222 W/m² | - |
| 1777291829 | 17.22° C | 34% | 1015 hPa | 0 mm | - | 169 W/m² | - |
| 1777291221 | 17.22° C | 33% | 1015 hPa | 0 mm | - | 148 W/m² | - |
| 1777290629 | 16.67° C | 35% | 1015.2 hPa | 0 mm | - | 165 W/m² | - |
| 1777290021 | 16.67° C | 34% | 1015.3 hPa | 0 mm | - | 133 W/m² | - |
| 1777289429 | 16.67° C | 34% | 1015.4 hPa | 0 mm | - | 137 W/m² | - |
| 1777288821 | 16.11° C | 32% | 1015.4 hPa | 0 mm | - | 167 W/m² | - |
| 1777288229 | 16.11° C | 35% | 1015.6 hPa | 0 mm | - | 142 W/m² | - |
| 1777287621 | 16.11° C | 38% | 1015.6 hPa | 0 mm | - | 345 W/m² | - |
* Rain latest hour (hover to see other rain measurements)
** Current wind speed in m/s (hover to see current wind gust speed)